User: anonymous   Login
Location: Kailua
(21.4020°N, 157.7390°W)
Time: 18:04:53
(UTC-10:00)
Language:

Cosmos 2221 Rocket - Orbit

View from above orbital plane
View from above orbital plane
View from above satellite
View from above satellite

Ground track
Ground track

The orbit data is extracted from the following two-line orbital elements,

1 22237U 92080B   16038.07368663  .00000142  00000-0  16389-4 0  9990
2 22237  82.5100 219.1887 0020514  31.5526 107.8812 14.78231024250145
Epoch (UTC): 07 February 2016 01:46:06
Eccentricity: 0.0020514
inclination: 82.5100°
perigee height: 620 km
apogee height: 649 km
right ascension of ascending node: 219.1887°
argument of perigee: 31.5526°
revolutions per day: 14.78231024
mean anomaly at epoch: 107.8812°
orbit number at epoch: 25014

The dashed part of the orbit path shows where the satellite is in the earth's shadow,  

DLR